Location: Addison Town Hall
(32.9525°N, 96.8158°W)
Time: 22:25:28
(UTC+00:00)

NOSS 0 Rocket - Pass Details

Date: 08 March 2021
Orbit: 936 x 954 km, 70.0° (Epoch: 11 April)

Event Time Altitude Azimuth Distance (km) Brightness Sun altitude
Rises 11:59:14 0° 339° (NNW) 3,607 6.8 -10.7°
Reaches altitude 10° 12:01:46 10° 341° (NNW) 2,662 6.1 -10.1°
Maximum altitude 12:07:58 80° 68° (ENE) 961 4.1 -8.8°
Drops below altitude 10° 12:14:09 10° 156° (SSE) 2,660 6.6 -7.5°
Sets 12:16:41 0° 157° (SSE) 3,605 7.3 -7.0°
